This is the latest recevied weather packets stored in our database for station/object F5MAP-5. If no packets are shown the sender has not sent any weather packets the latest 10 day(s).
| Time | Temp. | Humidity | Pressure | Rain* | Wind** | Luminosity | Snow |
|---|---|---|---|---|---|---|---|
| 1777549953 | 21.11° C | 30% | 1021.9 hPa | 0 mm | - | 809 W/m² | - |
| 1777548153 | 20.56° C | 31% | 1022 hPa | 0 mm | - | 816 W/m² | - |
| 1777547553 | 20.56° C | 31% | 1022.1 hPa | 0 mm | - | 816 W/m² | - |
| 1777545154 | 19.44° C | 33% | 1022.6 hPa | 0 mm | - | 800 W/m² | - |
| 1777544553 | 18.89° C | 33% | 1022.6 hPa | 0 mm | - | 789 W/m² | - |
| 1777543953 | 18.33° C | 34% | 1022.7 hPa | 0 mm | - | 780 W/m² | - |
| 1777541552 | 16.67° C | 38% | 1022.9 hPa | 0 mm | - | 733 W/m² | - |
| 1777540952 | 16.11° C | 39% | 1022.9 hPa | 0 mm | - | 721 W/m² | - |
| 1777540352 | 16.11° C | 39% | 1023 hPa | 0 mm | - | 705 W/m² | - |
| 1777539153 | 15.56° C | 40% | 1023.2 hPa | 0 mm | - | 671 W/m² | - |
| 1777538553 | 15° C | 41% | 1023.2 hPa | 0 mm | - | 654 W/m² | - |
| 1777536752 | 13.89° C | 43% | 1023.1 hPa | 0 mm | - | 591 W/m² | - |
| 1777535553 | 13.33° C | 44% | 1023.2 hPa | 0 mm | - | 541 W/m² | - |
| 1777534953 | 12.78° C | 45% | 1023.2 hPa | 0 mm | - | 515 W/m² | - |
| 1777534352 | 12.78° C | 46% | 1023.3 hPa | 0 mm | - | 489 W/m² | - |
| 1777533752 | 12.22° C | 47% | 1023.3 hPa | 0 mm | - | 462 W/m² | - |
| 1777533152 | 11.67° C | 48% | 1023.3 hPa | 0 mm | - | 51 W/m² | - |
| 1777531952 | 11.11° C | 49% | 1023.3 hPa | 0 mm | - | 47 W/m² | - |
| 1777531352 | 10.56° C | 50% | 1023.3 hPa | 0 mm | - | 47 W/m² | - |
| 1777530752 | 10.56° C | 51% | 1023.3 hPa | 0 mm | - | 47 W/m² | - |
| 1777530152 | 10.56° C | 51% | 1023.2 hPa | 0 mm | - | 46 W/m² | - |
| 1777529551 | 10° C | 52% | 1023.1 hPa | 0 mm | - | 46 W/m² | - |
| 1777528353 | 9.44° C | 55% | 1023 hPa | 0 mm | - | 42 W/m² | - |
| 1777527152 | 8.33° C | 56% | 1022.8 hPa | 0 mm | - | 39 W/m² | - |
| 1777526552 | 8.33° C | 57% | 1022.8 hPa | 0 mm | - | 37 W/m² | - |
* Rain latest hour (hover to see other rain measurements)
** Current wind speed in m/s (hover to see current wind gust speed)